{"data":{"norad_id":65918,"intl_designator":"2025-225J","name":"STARLINK-35516","alt_names":[],"object_type":"PAYLOAD","status":"ACTIVE","operator":null,"country":"US","launch_date":"2025-10-08","launch_site_code":"AFWTR","launch_vehicle":null,"mission":null,"orbit_class":"UNKNOWN","rcs_meters":null,"size_class":null,"mass_kg":null,"dimensions":null,"purposes":["comms"],"wikipedia_slug":null,"has_3d_model":false,"image_url":null,"decayed_at":null,"tle_current":{"epoch":"2026-09-20T22:19:51.585888Z","epoch_age_seconds":65944,"freshness":"FRESH","line1":"1 65918U 25225J   26263.93045817  .00015219  00000+0  46056-3 0  9992","line2":"2 65918  53.1626 337.8642 0001258  79.4542 280.6603 15.34406418 54318","mean_motion":15.34406418,"eccentricity":0.0001258,"inclination_deg":53.1626,"raan_deg":337.8642,"arg_perigee_deg":79.4542,"mean_anomaly_deg":280.6603,"bstar":0.00046056,"rev_number":5431,"period_min":93.847365541976,"perigee_km":461.82358932255,"apogee_km":463.54473992757,"semimajor_km":6840.8211646251,"source":"CELESTRAK","updated_at":"2026-09-21T09:00:35.763726Z"}}}